Location: ?????
(33.6267°N, 35.4675°E)
Time: 06:34:06
(UTC+00:00)

ATLAS 5 CENTAUR R/B - Pass Details

Date: 01 March 2020
Orbit: 542 x 1116 km, 63.4° (Epoch: 06 April)

Event Time Altitude Azimuth Distance (km) Brightness Sun altitude
Exits shadow 03:32:32 - 231° (SW) 2,504 4.2 -7.8°
Reaches altitude 10° 03:34:19 10° 239° (WSW) 1,818 3.5 -7.5°
Maximum altitude 03:38:03 36° 306° (NW) 924 2.1 -6.7°
Drops below altitude 10° 03:42:06 10° 14° (NNE) 1,983 4.3 -5.8°
Sets 03:44:41 0° 23° (NNE) 2,974 5.3 -5.3°
